OBJECT F, 44884

Orbit data source: Space-Track

You're viewing an Uncataloged Satellite

Recently launched and/or uncataloged satellites may have evolving metadata. Metadata may include but not limited to: Owner, Maufacturer, Bus, Motor, and Mission.

OBJECT F, 44884 is a satellite in SSO that was launched on Fri, 20 Dec 2019 UTC via a CHANG ZHENG 4B launch vehicle from the Taiyaun Space Center, China (TSC). Unknown objects in Earth's orbit typically refer to objects detected orbiting the Earth but have not yet been identified or cataloged. These objects could be anything from previously untracked satellites, spent rocket stages, debris from satellite collisions, or even natural meteoroids temporarily captured by Earth's gravity.

Loading next visibility...
Identifier
44884, 2019-093F
Orbit
SSO
Country
Flag of TBDTBD
Related business
None
Manufacturer
Unknown
Mission
Operational Commercial Communications
Bus & Motor
Unknown
Mass
Unknown
Launch date (UTC)
2019-12-20 (6 years ago)
Launch vehicle
CHANG ZHENG 4B
Launch site
Taiyaun Space Center, China (TSC)
Object type
Unknown
Shape & HBR
Box, Unknown HBR
Radar Cross Section
0.195 m², Medium (>0.1 m² and < 1m²)

Expand to show TLE details & history
Last TLE update: 5 days ago

TLE from 5 days ago
0 OBJECT F
1 44884U 19093F   26155.18498024  .00005518  00000-0  44103-3 0  9999
2 44884  97.7846 245.0536 0017658  75.2282 285.0897 15.00527332350475
Epoch: 2026-06-04T04:26Z
TLE epoch observation values (Epoch: 2026-06-04T04:26:22.292Z)
Latitude
-0°
Longitude
-74.17216°
Altitude
565.15 km
Speed
7.58 km/s
True Right ascension
16h 20m 12s
True Declination
0° 00' 00"
Sunlit
Object was in full shadow at epoch
Visualization orbit readout
Latitude
Unknown
Longitude
Unknown
Altitude
Unknown
Speed
Unknown
Apparent Right ascension
Unknown
Apparent Declination
Unknown
Sunlit
N/A
Visualization observer readout
Local Sidereal Time
00:36:44
Azimuth
Unknown
Elevation
Unknown
Doppler factor
Unknown
Orbital elements
Apogee altitude
574.533 km
Perigee altitude
550.022 km
Semi-major axis
6,940.414 km
Eccentricity
0.00177
Inclination
97.7846°
RAAN
245.0536°
Arg. of periapsis
75.2282°
True anomaly
284.89422°
Mean anomaly
285.0897°
Eccentric anomaly
284.99197°
Mean motion
3.75375 °/min
Orbital period
95.9 mins
BSTAR
0.00044103
Loading maneuver chart data...
Computing Atmospheric mass density...
Loading historical data...
Loading historical data...
Loading historical data...
Loading historical data...
Loading historical data...
Loading historical data...
Loading historical data...

Documentation

Showing up to 5 results
|